Regional Weather Roundup
Issued by NWS

Home | Current Version | Previous Version | Graphics & Text | Print | Product List | Glossary On
Versions: 1 2 3 4 5 6 7 8 9 10 11 12 13 14 15 16 17 18 19 20 21 22 23 24 25 26 27 28 29 30 31 32 33 34 35 36 37 38 39 40 41 42 43 44 45 46 47 48 49 50
351
ASUS43 KLMK 180702
RWRKY
KENTUCKY REGIONAL WEATHER ROUNDUP
NATIONAL WEATHER SERVICE LOUISVILLE KY
300 AM EDT WED OCT 18 2017

NOTE "FAIR" INDICATES FEW OR NO CLOUDS BELOW 12,000 FEET
WITH NO SIGNIFICANT WEATHER AND/OR OBSTRUCTIONS TO VISIBILITY.

KYZ001>023-026-027-061>063-070>075-180800-
WESTERN AND SOUTH CENTRAL KENTUCKY

CITY           SKY/WX    TMP DP  RH WIND       PRES   REMARKS
PADUCAH        CLEAR     44  40  85 CALM      30.23S
HENDERSON      CLEAR     44  41  89 CALM      30.25F
OWENSBORO      CLEAR     46  44  93 SE3       30.26S
HOPKINSVILLE   CLEAR     45  43  93 CALM      30.25S
BOWLING GREEN  CLEAR     42  42 100 CALM      30.27F FOG
GLASGOW        NOT AVBL
$$

KYZ024-025-028>034-038-045-046-053-180800-
NORTH CENTRAL KENTUCKY

CITY           SKY/WX    TMP DP  RH WIND       PRES   REMARKS
LOUISVILLE/SDF PTCLDY    49  45  86 SE3       30.27S
LOUISVILLE/LOU CLEAR     44  44 100 CALM      30.28S
FORT KNOX      CLEAR     42  41  98 CALM      30.25S
$$

KYZ035>037-039>044-047>052-055>060-089>105-180800-
NORTHEAST KENTUCKY

CITY           SKY/WX    TMP DP  RH WIND       PRES   REMARKS
LEXINGTON      CLOUDY    44  39  82 SE6       30.28S
COVINGTON      PTCLDY    46  41  82 S6        30.27S
FRANKFORT      CLEAR     42  38  85 CALM      30.27S
$$

KYZ054-064>069-076>088-106>120-180800-
SOUTHEAST KENTUCKY

CITY           SKY/WX    TMP DP  RH WIND       PRES   REMARKS
JACKSON        CLEAR     46  41  82 CALM      30.29S
LONDON         CLEAR     42  40  92 CALM      30.29S
SOMERSET       NOT AVBL
MIDDLESBORO    CLEAR     39  39 100 CALM      30.32F
MONTICELLO     MOSUNNY   40  39  97 CALM      30.31S
$$





USA.gov is the U.S. government's official web portal to all federal, state and local government web resources and services.